Kissimmee, FL

9:17 PM EST on November 22, 2019 (GMT -0500)
Kissimmee Municipal

Weather History for KISM - September, 2019

Change the Weather History Date:

Sunday, September 15, 2019

  Actual Average Record
Temperature  
Mean Temperature 82 °F -  
Max Temperature 91 °F 89 °F 94 °F (1962)
Min Temperature 75 °F 71 °F 62 °F (1965)
Cooling Degree Days 17    
Growing Degree Days 32 (Base 50)    
Moisture  
Dew Point 75 °F    
Average Humidity 77    
Maximum Humidity 97    
Minimum Humidity 61    
Precipitation  
Precipitation 0.00 in - - ()
Sea Level Pressure  
Sea Level Pressure 29.94 in    
Wind  
Wind Speed 8 mph (North)    
Max Wind Speed 15 mph    
Max Gust Speed 18 mph    
Visibility 10 miles    
Events      
Averages and records for this station are not official NWS values.
T = Trace of Precipitation, MM = Missing Value Source: NWS Daily Summary

Daily Weather History Graph

Daily Weather History Graph

Search for Another Location

Airport or City:

Astronomy

Sep. 15, 2019 Rise Set
Actual Time 7:10 AM EDT 7:30 PM EDT
Civil Twilight 6:47 AM EDT 7:54 PM EDT
Nautical Twilight 6:19 AM EDT 8:21 PM EDT
Astronomical Twilight 5:51 AM EDT 8:49 PM EDT
Moon 8:42 PM EDT (9/15) 8:17 AM EDT (9/15)
Length of Visible Light 13h 07m
Length of Day
12h 20m
Full, 98% of the Moon is Illuminated
Sep 15
Full
Sep 21
Last Quarter
Sep 28
New
Oct 5
First Quarter
Oct 13
Full

Hourly Weather History & Observations

Time (EDT) Temp. Heat Index Dew Point Humidity Pressure Visibility Wind Dir Wind Speed Gust Speed Precip Events Conditions
12:56 AM 79.0 °F - 75.0 °F 88% 29.99 in 10.0 mi North 4.6 mph - N/A   Clear
3:56 AM 77.0 °F - 75.9 °F 96% 29.93 in 10.0 mi North 5.8 mph - N/A   Clear
4:56 AM 77.0 °F - 75.9 °F 96% 29.93 in 10.0 mi North 6.9 mph - N/A   Clear
5:56 AM 75.9 °F - 75.0 °F 97% 29.95 in 10.0 mi NW 4.6 mph - N/A   Partly Cloudy
6:56 AM 77.0 °F - 75.9 °F 96% 29.96 in 10.0 mi NNW 5.8 mph - N/A   Partly Cloudy
7:56 AM 78.1 °F - 75.9 °F 93% 29.95 in 10.0 mi North 8.1 mph - N/A   Clear
8:56 AM 81.0 °F 87.3 °F 75.9 °F 85% 29.96 in 10.0 mi North 10.4 mph - N/A   Clear
9:56 AM 84.0 °F 92.6 °F 75.9 °F 76% 29.96 in 10.0 mi NNE 8.1 mph - N/A   Partly Cloudy
10:35 AM 86.0 °F 95.1 °F 75.2 °F 70% 29.95 in 10.0 mi North 11.5 mph - N/A   Mostly Cloudy
10:56 AM 84.9 °F 93.3 °F 75.0 °F 72% 29.96 in 10.0 mi NNE 11.5 mph - N/A   Overcast
11:06 AM 87.8 °F 97.6 °F 75.2 °F 66% 29.96 in 10.0 mi NNE 6.9 mph 18.4 mph N/A   Scattered Clouds
11:56 AM 87.1 °F 96.3 °F 75.0 °F 67% 29.96 in 10.0 mi NNE 11.5 mph 18.4 mph N/A   Scattered Clouds
12:56 PM 87.1 °F 95.4 °F 73.9 °F 65% 29.95 in 10.0 mi ENE 11.5 mph 17.3 mph N/A   Scattered Clouds
1:56 PM 89.1 °F 98.0 °F 73.9 °F 61% 29.94 in 10.0 mi NE 6.9 mph - N/A   Scattered Clouds
2:56 PM 89.1 °F 99.1 °F 75.0 °F 63% 29.92 in 10.0 mi NNE 9.2 mph 17.3 mph 0.00 in   Scattered Clouds
3:56 PM 87.1 °F 95.4 °F 73.9 °F 65% 29.91 in 10.0 mi NE 15.0 mph 18.4 mph N/A   Mostly Cloudy
4:56 PM 88.0 °F 95.6 °F 73.0 °F 61% 29.90 in 10.0 mi North 8.1 mph - N/A   Partly Cloudy
5:56 PM 88.0 °F 96.5 °F 73.9 °F 63% 29.91 in 10.0 mi NE 8.1 mph - N/A   Mostly Cloudy
6:56 PM 82.9 °F 88.8 °F 73.0 °F 72% 29.93 in 10.0 mi NNW 9.2 mph - 0.00 in   Mostly Cloudy
7:56 PM 82.0 °F 87.9 °F 73.9 °F 76% 29.94 in 10.0 mi NNW 8.1 mph - N/A   Clear
8:56 PM 82.0 °F 88.6 °F 75.0 °F 79% 29.94 in 10.0 mi North 9.2 mph - N/A   Clear
9:56 PM 82.0 °F 88.6 °F 75.0 °F 79% 29.94 in 10.0 mi North 9.2 mph - N/A   Clear
10:56 PM 80.1 °F 85.1 °F 75.0 °F 85% 29.95 in 10.0 mi NNW 6.9 mph - N/A   Clear
11:56 PM 80.1 °F 85.1 °F 75.0 °F 85% 29.95 in 10.0 mi NNW 6.9 mph - N/A   Clear